Baltic Frost — 9HA2868 — position and weather

sailwx.info

Track history (hours):
 
Tides and Currents Weather Stations Pressure Air Temp Water Temp Dewpoint Dewpoint Depression Visibility Wind Speed Wind Dir Waves Ship Positions

Baltic Frost

Last reported at 2014-Jul-23 01:33 UTC. Time now 2014-Jul-23 22:11 UTC.
Position N 60°06' E 027°29'.

Length 182 m; draft 6.5 m.

Type: Ship. MMSI: 256495000.

Date/timePositionNaut miles runAvg speedWind from/ knotsBaromVisibWave heightAir tempDewpointWater temp
2014-Jul-23 01:33N 60°06' E 027°29'1212.3
2014-Jul-23 00:33N 59°59' E 027°08'1111.4
2014-Jul-22 23:33N 59°59' E 026°45'1111.5
2014-Jul-22 22:33N 59°57' E 026°23'5811.6
2014-Jul-22 17:32N 59°44' E 024°29'1111.8
2014-Jul-22 16:33N 59°41' E 024°08'1110.8
2014-Jul-22 15:33N 59°37' E 023°47'9 8.5
2014-Jul-22 14:33N 59°35' E 023°31'12 8.9
2014-Jul-22 13:13N 59°31' E 023°09'2110.1
2014-Jul-22 11:11N 59°22' E 022°32'3112.0
2014-Jul-22 08:33N 59°03' E 021°45'3911.6
2014-Jul-22 05:12N 58°31' E 021°01'811.8
2014-Jul-22 04:32N 58°24' E 020°53'2411.7
2014-Jul-22 02:28N 58°04' E 020°27'2311.7
2014-Jul-22 00:33N 57°44' E 020°09'1211.7
2014-Jul-21 23:33N 57°33' E 020°00'1211.6
2014-Jul-21 22:33N 57°22' E 019°52'1211.7
2014-Jul-21 21:33N 57°11' E 019°44'1111.4
2014-Jul-21 20:33N 57°01' E 019°34'311.5
2014-Jul-21 20:18N 56°59' E 019°31'811.3
2014-Jul-21 19:33N 56°51' E 019°25'1111.3
2014-Jul-21 18:33N 56°41' E 019°16'1111.1
2014-Jul-21 17:33N 56°31' E 019°08'1110.8
2014-Jul-21 16:33N 56°23' E 018°54'1110.7
2014-Jul-21 15:33N 56°15' E 018°41'1111.0
2014-Jul-21 14:33N 56°10' E 018°24'1111.2
2014-Jul-21 13:33N 56°04' E 018°07'4410.7
2014-Jul-21 09:28N 55°48' E 016°53'4611.0
2014-Jul-21 05:20N 55°37' E 015°35'811.0
2014-Jul-21 04:33N 55°35' E 015°21'1111.0
2014-Jul-21 03:33N 55°30' E 015°03'1111.3
2014-Jul-21 02:33N 55°26' E 014°45'1111.2
2014-Jul-21 01:33N 55°18' E 014°30'1010.3
2014-Jul-21 00:33N 55°11' E 014°17'1110.7
2014-Jul-20 23:33N 55°11' E 013°59'1110.6
2014-Jul-20 22:33N 55°11' E 013°40'1110.8
2014-Jul-20 21:33N 55°11' E 013°21'1110.6
2014-Jul-20 20:33N 55°13' E 013°03'1110.7
2014-Jul-20 19:33N 55°16' E 012°45'6 6.0
2014-Jul-20 18:33N 55°21' E 012°39'6 6.0
2014-Jul-20 17:33N 55°27' E 012°41'6 6.1
2014-Jul-20 16:34N 55°33' E 012°42'1211.5
2014-Jul-20 15:33N 55°44' E 012°41'1312.6
2014-Jul-20 14:33N 55°57' E 012°39'1111.0
2014-Jul-20 13:33N 56°07' E 012°31'9 9.2
2014-Jul-20 12:33N 56°12' E 012°18'1111.0
2014-Jul-20 11:33N 56°20' E 012°03'1211.6
2014-Jul-20 10:32N 56°31' E 011°58'1110.8
2014-Jul-20 09:33N 56°41' E 011°53'1111.2
2014-Jul-20 08:33N 56°52' E 011°48'1111.3
2014-Jul-20 07:33N 57°03' E 011°41'1110.9
2014-Jul-20 06:33N 57°13' E 011°34'1110.8
2014-Jul-20 05:33N 57°23' E 011°27'1110.8
2014-Jul-20 04:33N 57°32' E 011°15'1010.5
2014-Jul-20 03:33N 57°39' E 011°01'1110.6
2014-Jul-20 02:33N 57°46' E 010°46'1110.9
2014-Jul-20 01:33N 57°47' E 010°26'1111.2
2014-Jul-20 00:33N 57°45' E 010°05'1111.4
2014-Jul-19 23:33N 57°41' E 009°46'16511.0
2014-Jul-19 08:28N 55°36' E 006°28'6110.1
2014-Jul-19 02:28N 54°45' E 005°31'1111.7
2014-Jul-19 01:32N 54°35' E 005°22'1311.9
2014-Jul-19 00:24N 54°24' E 005°11'1012.0
2014-Jul-18 23:33N 54°15' E 005°03'1211.9
2014-Jul-18 22:34N 54°04' E 004°52'1211.8
2014-Jul-18 21:32N 53°56' E 004°38'1111.6
2014-Jul-18 20:34N 53°48' E 004°24'1111.2
2014-Jul-18 19:34N 53°41' E 004°09'1111.0
2014-Jul-18 18:33N 53°34' E 003°54'1210.7
2014-Jul-18 17:27N 53°25' E 003°42'1011.0
2014-Jul-18 16:34N 53°16' E 003°35'1310.7
2014-Jul-18 15:22N 53°05' E 003°26'29 7.2
2014-Jul-18 11:18N 52°36' E 003°13'911.8
2014-Jul-18 10:32N 52°27' E 003°13'1212.0
2014-Jul-18 09:33N 52°15' E 003°12'2712.5
2014-Jul-18 07:22N 51°53' E 002°47'1113.4
2014-Jul-18 06:32N 51°44' E 002°36'1313.6
2014-Jul-18 05:33N 51°33' E 002°25'1313.4
2014-Jul-18 04:33N 51°23' E 002°11'1313.1
2014-Jul-18 03:33N 51°12' E 001°59'1413.6
2014-Jul-18 02:33N 51°03' E 001°43'1313.1
2014-Jul-18 01:33N 50°53' E 001°29'1211.5
2014-Jul-18 00:33N 50°42' E 001°22'1711.3
2014-Jul-17 23:05N 50°32' E 001°03'610.6
2014-Jul-17 22:33N 50°28' E 000°55'1010.4
2014-Jul-17 21:33N 50°25' E 000°40'10 9.8
2014-Jul-17 20:33N 50°22' E 000°25'9 9.5
2014-Jul-17 19:33N 50°19' E 000°11'40 9.9
2014-Jul-17 15:33N 49°43' W 000°13'6 6.2
2014-Jul-17 14:33N 49°36' W 000°13'0 0.1
2014-Jul-17 13:26N 49°36' W 000°13'0 0.0
2014-Jul-17 12:32N 49°36' W 000°13'0 0.0
2014-Jul-17 11:31N 49°36' W 000°13'0 0.1
2014-Jul-17 10:31N 49°36' W 000°13'0 0.1
2014-Jul-17 09:30N 49°36' W 000°13'0 0.1
2014-Jul-17 08:30N 49°36' W 000°13'0 0.0
2014-Jul-17 07:30N 49°36' W 000°13'0 0.0
2014-Jul-17 06:32N 49°36' W 000°13'0 0.0
2014-Jul-17 05:17N 49°36' W 000°13'0 0.0
2014-Jul-17 04:22N 49°36' W 000°13'0 0.0
2014-Jul-17 03:28N 49°36' W 000°13'0 0.2
2014-Jul-17 02:33N 49°36' W 000°13'0 0.0
2014-Jul-17 01:33N 49°36' W 000°13'0 0.0
2014-Jul-17 00:33N 49°36' W 000°13'0 0.0
2014-Jul-16 23:32N 49°36' W 000°13'0 0.0
2014-Jul-16 22:32N 49°36' W 000°13'0 0.1
2014-Jul-16 21:31N 49°36' W 000°13'0 0.1
2014-Jul-16 20:31N 49°36' W 000°13'0 0.1
2014-Jul-16 19:33N 49°36' W 000°13'0 0.0
2014-Jul-16 18:30N 49°36' W 000°13'0 0.0
2014-Jul-16 17:29N 49°36' W 000°13'0 0.0
2014-Jul-16 16:32N 49°36' W 000°13'0 0.0
2014-Jul-16 15:32N 49°36' W 000°13'0 0.1
2014-Jul-16 14:31N 49°36' W 000°13'0 0.1
2014-Jul-16 13:31N 49°36' W 000°13'0 0.0
2014-Jul-16 12:33N 49°36' W 000°13'0 0.0
2014-Jul-16 11:33N 49°36' W 000°13'0 0.0
2014-Jul-16 10:33N 49°36' W 000°13'0 0.0
2014-Jul-16 09:26N 49°36' W 000°13'0 0.1
2014-Jul-16 08:32N 49°36' W 000°13'0 0.1
2014-Jul-16 07:31N 49°36' W 000°13'0 0.0
2014-Jul-16 06:32N 49°36' W 000°13'0 0.0
2014-Jul-16 05:33N 49°36' W 000°13'0 0.0
2014-Jul-16 04:30N 49°36' W 000°13'0 0.0
2014-Jul-16 03:32N 49°36' W 000°13'0 0.1
2014-Jul-16 02:32N 49°36' W 000°13'0 0.1
2014-Jul-16 01:32N 49°36' W 000°13'0 0.0
2014-Jul-16 00:31N 49°36' W 000°13'0 0.0
2014-Jul-15 23:28N 49°36' W 000°13'0 0.0
2014-Jul-15 22:30N 49°36' W 000°13'0 0.0
2014-Jul-15 21:33N 49°36' W 000°13'0 0.1
2014-Jul-15 20:32N 49°36' W 000°13'0 0.1
2014-Jul-15 19:29N 49°36' W 000°13'0 0.1
2014-Jul-15 18:32N 49°36' W 000°13'0 0.0
2014-Jul-15 17:31N 49°36' W 000°13'0 0.0
2014-Jul-15 16:31N 49°36' W 000°13'0 0.0
2014-Jul-15 15:33N 49°36' W 000°13'0 0.0
2014-Jul-15 14:30N 49°36' W 000°13'0 0.2
2014-Jul-15 13:32N 49°36' W 000°13'0 0.1
2014-Jul-15 12:29N 49°36' W 000°13'0 0.0
2014-Jul-15 11:28N 49°36' W 000°13'0 0.0
2014-Jul-15 10:31N 49°36' W 000°13'0 0.0
2014-Jul-15 09:28N 49°36' W 000°13'0 0.0
2014-Jul-15 08:33N 49°36' W 000°13'0 0.0
2014-Jul-15 07:33N 49°36' W 000°13'0 0.2
2014-Jul-15 06:29N 49°36' W 000°13'0 0.0
2014-Jul-15 05:32N 49°36' W 000°13'0 0.0
2014-Jul-15 04:31N 49°36' W 000°13'0 0.0
2014-Jul-15 03:28N 49°36' W 000°13'0 0.1
2014-Jul-15 02:31N 49°36' W 000°13'0 0.1
2014-Jul-15 01:33N 49°37' W 000°13'0 0.1
2014-Jul-15 00:33N 49°36' W 000°13'0 0.0
2014-Jul-14 23:32N 49°36' W 000°13'0 0.0
2014-Jul-14 22:32N 49°36' W 000°13'0 0.0
2014-Jul-14 21:31N 49°36' W 000°13'0 0.0
2014-Jul-14 20:31N 49°36' W 000°13'0 0.0
2014-Jul-14 19:28N 49°36' W 000°13'0 0.2
2014-Jul-14 18:33N 49°36' W 000°13'0 0.0
2014-Jul-14 17:33N 49°36' W 000°13'0 0.0
2014-Jul-14 16:32N 49°36' W 000°13'0 0.0
2014-Jul-14 15:29N 49°36' W 000°13'0 0.0
2014-Jul-14 14:31N 49°36' W 000°13'0 0.1
2014-Jul-14 13:31N 49°36' W 000°13'0 0.1
2014-Jul-14 12:22N 49°36' W 000°13'0 0.1
2014-Jul-14 11:33N 49°36' W 000°13'0 0.0
2014-Jul-14 10:24N 49°36' W 000°13'0 0.0
2014-Jul-14 09:29N 49°36' W 000°13'0 0.1
2014-Jul-14 08:32N 49°36' W 000°13'0 0.1
2014-Jul-14 07:31N 49°36' W 000°13'0 0.1
2014-Jul-14 06:28N 49°36' W 000°13'0 0.1
2014-Jul-14 05:31N 49°36' W 000°13'2 2.6
2014-Jul-14 04:34N 49°36' W 000°17'6 6.3
2014-Jul-14 03:33N 49°38' W 000°26'7 6.9
2014-Jul-14 02:33N 49°41' W 000°36'  
Track history (hours):
 
Tides and Currents Weather Stations Pressure Air Temp Water Temp Dewpoint Dewpoint Depression Visibility Wind Speed Wind Dir Waves Ship Positions

Baltic Frost

Last reported at 2014-Jul-23 01:33 UTC. Time now 2014-Jul-23 22:11 UTC.
Position N 60°06' E 027°29'.

Length 182 m; draft 6.5 m.

Type: Ship. MMSI: 256495000.

Date/timePositionNaut miles runAvg speedWind from/ knotsBaromVisibWave heightAir tempDewpointWater temp
2014-Jul-23 01:33N 60°06' E 027°29'1212.3
2014-Jul-23 00:33N 59°59' E 027°08'1111.4
2014-Jul-22 23:33N 59°59' E 026°45'1111.5
2014-Jul-22 22:33N 59°57' E 026°23'5811.6
2014-Jul-22 17:32N 59°44' E 024°29'1111.8
2014-Jul-22 16:33N 59°41' E 024°08'1110.8
2014-Jul-22 15:33N 59°37' E 023°47'9 8.5
2014-Jul-22 14:33N 59°35' E 023°31'12 8.9
2014-Jul-22 13:13N 59°31' E 023°09'2110.1
2014-Jul-22 11:11N 59°22' E 022°32'3112.0
2014-Jul-22 08:33N 59°03' E 021°45'3911.6
2014-Jul-22 05:12N 58°31' E 021°01'811.8
2014-Jul-22 04:32N 58°24' E 020°53'2411.7
2014-Jul-22 02:28N 58°04' E 020°27'2311.7
2014-Jul-22 00:33N 57°44' E 020°09'1211.7
2014-Jul-21 23:33N 57°33' E 020°00'1211.6
2014-Jul-21 22:33N 57°22' E 019°52'1211.7
2014-Jul-21 21:33N 57°11' E 019°44'1111.4
2014-Jul-21 20:33N 57°01' E 019°34'311.5
2014-Jul-21 20:18N 56°59' E 019°31'811.3
2014-Jul-21 19:33N 56°51' E 019°25'1111.3
2014-Jul-21 18:33N 56°41' E 019°16'1111.1
2014-Jul-21 17:33N 56°31' E 019°08'1110.8
2014-Jul-21 16:33N 56°23' E 018°54'1110.7
2014-Jul-21 15:33N 56°15' E 018°41'1111.0
2014-Jul-21 14:33N 56°10' E 018°24'1111.2
2014-Jul-21 13:33N 56°04' E 018°07'4410.7
2014-Jul-21 09:28N 55°48' E 016°53'4611.0
2014-Jul-21 05:20N 55°37' E 015°35'811.0
2014-Jul-21 04:33N 55°35' E 015°21'1111.0
2014-Jul-21 03:33N 55°30' E 015°03'1111.3
2014-Jul-21 02:33N 55°26' E 014°45'1111.2
2014-Jul-21 01:33N 55°18' E 014°30'1010.3
2014-Jul-21 00:33N 55°11' E 014°17'1110.7
2014-Jul-20 23:33N 55°11' E 013°59'1110.6
2014-Jul-20 22:33N 55°11' E 013°40'1110.8
2014-Jul-20 21:33N 55°11' E 013°21'1110.6
2014-Jul-20 20:33N 55°13' E 013°03'1110.7
2014-Jul-20 19:33N 55°16' E 012°45'6 6.0
2014-Jul-20 18:33N 55°21' E 012°39'6 6.0
2014-Jul-20 17:33N 55°27' E 012°41'6 6.1
2014-Jul-20 16:34N 55°33' E 012°42'1211.5
2014-Jul-20 15:33N 55°44' E 012°41'1312.6
2014-Jul-20 14:33N 55°57' E 012°39'1111.0
2014-Jul-20 13:33N 56°07' E 012°31'9 9.2
2014-Jul-20 12:33N 56°12' E 012°18'1111.0
2014-Jul-20 11:33N 56°20' E 012°03'1211.6
2014-Jul-20 10:32N 56°31' E 011°58'1110.8
2014-Jul-20 09:33N 56°41' E 011°53'1111.2
2014-Jul-20 08:33N 56°52' E 011°48'1111.3
2014-Jul-20 07:33N 57°03' E 011°41'1110.9
2014-Jul-20 06:33N 57°13' E 011°34'1110.8
2014-Jul-20 05:33N 57°23' E 011°27'1110.8
2014-Jul-20 04:33N 57°32' E 011°15'1010.5
2014-Jul-20 03:33N 57°39' E 011°01'1110.6
2014-Jul-20 02:33N 57°46' E 010°46'1110.9
2014-Jul-20 01:33N 57°47' E 010°26'1111.2
2014-Jul-20 00:33N 57°45' E 010°05'1111.4
2014-Jul-19 23:33N 57°41' E 009°46'16511.0
2014-Jul-19 08:28N 55°36' E 006°28'6110.1
2014-Jul-19 02:28N 54°45' E 005°31'1111.7
2014-Jul-19 01:32N 54°35' E 005°22'1311.9
2014-Jul-19 00:24N 54°24' E 005°11'1012.0
2014-Jul-18 23:33N 54°15' E 005°03'1211.9
2014-Jul-18 22:34N 54°04' E 004°52'1211.8
2014-Jul-18 21:32N 53°56' E 004°38'1111.6
2014-Jul-18 20:34N 53°48' E 004°24'1111.2
2014-Jul-18 19:34N 53°41' E 004°09'1111.0
2014-Jul-18 18:33N 53°34' E 003°54'1210.7
2014-Jul-18 17:27N 53°25' E 003°42'1011.0
2014-Jul-18 16:34N 53°16' E 003°35'1310.7
2014-Jul-18 15:22N 53°05' E 003°26'29 7.2
2014-Jul-18 11:18N 52°36' E 003°13'911.8
2014-Jul-18 10:32N 52°27' E 003°13'1212.0
2014-Jul-18 09:33N 52°15' E 003°12'2712.5
2014-Jul-18 07:22N 51°53' E 002°47'1113.4
2014-Jul-18 06:32N 51°44' E 002°36'1313.6
2014-Jul-18 05:33N 51°33' E 002°25'1313.4
2014-Jul-18 04:33N 51°23' E 002°11'1313.1
2014-Jul-18 03:33N 51°12' E 001°59'1413.6
2014-Jul-18 02:33N 51°03' E 001°43'1313.1
2014-Jul-18 01:33N 50°53' E 001°29'1211.5
2014-Jul-18 00:33N 50°42' E 001°22'1711.3
2014-Jul-17 23:05N 50°32' E 001°03'610.6
2014-Jul-17 22:33N 50°28' E 000°55'1010.4
2014-Jul-17 21:33N 50°25' E 000°40'10 9.8
2014-Jul-17 20:33N 50°22' E 000°25'9 9.5
2014-Jul-17 19:33N 50°19' E 000°11'40 9.9
2014-Jul-17 15:33N 49°43' W 000°13'6 6.2
2014-Jul-17 14:33N 49°36' W 000°13'0 0.1
2014-Jul-17 13:26N 49°36' W 000°13'0 0.0
2014-Jul-17 12:32N 49°36' W 000°13'0 0.0
2014-Jul-17 11:31N 49°36' W 000°13'0 0.1
2014-Jul-17 10:31N 49°36' W 000°13'0 0.1
2014-Jul-17 09:30N 49°36' W 000°13'0 0.1
2014-Jul-17 08:30N 49°36' W 000°13'0 0.0
2014-Jul-17 07:30N 49°36' W 000°13'0 0.0
2014-Jul-17 06:32N 49°36' W 000°13'0 0.0
2014-Jul-17 05:17N 49°36' W 000°13'0 0.0
2014-Jul-17 04:22N 49°36' W 000°13'0 0.0
2014-Jul-17 03:28N 49°36' W 000°13'0 0.2
2014-Jul-17 02:33N 49°36' W 000°13'0 0.0
2014-Jul-17 01:33N 49°36' W 000°13'0 0.0
2014-Jul-17 00:33N 49°36' W 000°13'0 0.0
2014-Jul-16 23:32N 49°36' W 000°13'0 0.0
2014-Jul-16 22:32N 49°36' W 000°13'0 0.1
2014-Jul-16 21:31N 49°36' W 000°13'0 0.1
2014-Jul-16 20:31N 49°36' W 000°13'0 0.1
2014-Jul-16 19:33N 49°36' W 000°13'0 0.0
2014-Jul-16 18:30N 49°36' W 000°13'0 0.0
2014-Jul-16 17:29N 49°36' W 000°13'0 0.0
2014-Jul-16 16:32N 49°36' W 000°13'0 0.0
2014-Jul-16 15:32N 49°36' W 000°13'0 0.1
2014-Jul-16 14:31N 49°36' W 000°13'0 0.1
2014-Jul-16 13:31N 49°36' W 000°13'0 0.0
2014-Jul-16 12:33N 49°36' W 000°13'0 0.0
2014-Jul-16 11:33N 49°36' W 000°13'0 0.0
2014-Jul-16 10:33N 49°36' W 000°13'0 0.0
2014-Jul-16 09:26N 49°36' W 000°13'0 0.1
2014-Jul-16 08:32N 49°36' W 000°13'0 0.1
2014-Jul-16 07:31N 49°36' W 000°13'0 0.0
2014-Jul-16 06:32N 49°36' W 000°13'0 0.0
2014-Jul-16 05:33N 49°36' W 000°13'0 0.0
2014-Jul-16 04:30N 49°36' W 000°13'0 0.0
2014-Jul-16 03:32N 49°36' W 000°13'0 0.1
2014-Jul-16 02:32N 49°36' W 000°13'0 0.1
2014-Jul-16 01:32N 49°36' W 000°13'0 0.0
2014-Jul-16 00:31N 49°36' W 000°13'0 0.0
2014-Jul-15 23:28N 49°36' W 000°13'0 0.0
2014-Jul-15 22:30N 49°36' W 000°13'0 0.0
2014-Jul-15 21:33N 49°36' W 000°13'0 0.1
2014-Jul-15 20:32N 49°36' W 000°13'0 0.1
2014-Jul-15 19:29N 49°36' W 000°13'0 0.1
2014-Jul-15 18:32N 49°36' W 000°13'0 0.0
2014-Jul-15 17:31N 49°36' W 000°13'0 0.0
2014-Jul-15 16:31N 49°36' W 000°13'0 0.0
2014-Jul-15 15:33N 49°36' W 000°13'0 0.0
2014-Jul-15 14:30N 49°36' W 000°13'0 0.2
2014-Jul-15 13:32N 49°36' W 000°13'0 0.1
2014-Jul-15 12:29N 49°36' W 000°13'0 0.0
2014-Jul-15 11:28N 49°36' W 000°13'0 0.0
2014-Jul-15 10:31N 49°36' W 000°13'0 0.0
2014-Jul-15 09:28N 49°36' W 000°13'0 0.0
2014-Jul-15 08:33N 49°36' W 000°13'0 0.0
2014-Jul-15 07:33N 49°36' W 000°13'0 0.2
2014-Jul-15 06:29N 49°36' W 000°13'0 0.0
2014-Jul-15 05:32N 49°36' W 000°13'0 0.0
2014-Jul-15 04:31N 49°36' W 000°13'0 0.0
2014-Jul-15 03:28N 49°36' W 000°13'0 0.1
2014-Jul-15 02:31N 49°36' W 000°13'0 0.1
2014-Jul-15 01:33N 49°37' W 000°13'0 0.1
2014-Jul-15 00:33N 49°36' W 000°13'0 0.0
2014-Jul-14 23:32N 49°36' W 000°13'0 0.0
2014-Jul-14 22:32N 49°36' W 000°13'0 0.0
2014-Jul-14 21:31N 49°36' W 000°13'0 0.0
2014-Jul-14 20:31N 49°36' W 000°13'0 0.0
2014-Jul-14 19:28N 49°36' W 000°13'0 0.2
2014-Jul-14 18:33N 49°36' W 000°13'0 0.0
2014-Jul-14 17:33N 49°36' W 000°13'0 0.0
2014-Jul-14 16:32N 49°36' W 000°13'0 0.0
2014-Jul-14 15:29N 49°36' W 000°13'0 0.0
2014-Jul-14 14:31N 49°36' W 000°13'0 0.1
2014-Jul-14 13:31N 49°36' W 000°13'0 0.1
2014-Jul-14 12:22N 49°36' W 000°13'0 0.1
2014-Jul-14 11:33N 49°36' W 000°13'0 0.0
2014-Jul-14 10:24N 49°36' W 000°13'0 0.0
2014-Jul-14 09:29N 49°36' W 000°13'0 0.1
2014-Jul-14 08:32N 49°36' W 000°13'0 0.1
2014-Jul-14 07:31N 49°36' W 000°13'0 0.1
2014-Jul-14 06:28N 49°36' W 000°13'0 0.1
2014-Jul-14 05:31N 49°36' W 000°13'2 2.6
2014-Jul-14 04:34N 49°36' W 000°17'6 6.3
2014-Jul-14 03:33N 49°38' W 000°26'7 6.9
2014-Jul-14 02:33N 49°41' W 000°36'  

Dump ship's entire track history